This is the latest recevied weather packets stored in our database for station/object K6MBY. If no packets are shown the sender has not sent any weather packets the latest 10 day(s).
| Time | Temp. | Humidity | Pressure | Rain* | Wind** | Luminosity | Snow |
|---|---|---|---|---|---|---|---|
| 1777822478 | 19.44° C | 55% | 1018.8 hPa | 0 mm | - | 386 W/m² | - |
| 1777822175 | 18.89° C | 57% | 1018.7 hPa | 0 mm | - | 364 W/m² | - |
| 1777821872 | 18.89° C | 57% | 1018.8 hPa | 0 mm | - | 346 W/m² | - |
| 1777821570 | 18.89° C | 57% | 1018.8 hPa | 0 mm | - | 327 W/m² | - |
| 1777821268 | 18.89° C | 57% | 1018.9 hPa | 0 mm | - | 309 W/m² | - |
| 1777820964 | 18.89° C | 57% | 1018.8 hPa | 0 mm | - | 291 W/m² | - |
| 1777820661 | 18.89° C | 57% | 1019 hPa | 0 mm | - | 271 W/m² | - |
| 1777820356 | 18.33° C | 59% | 1019.1 hPa | 0 mm | - | 252 W/m² | - |
| 1777820055 | 18.33° C | 59% | 1019.1 hPa | 0 mm | - | 234 W/m² | - |
| 1777819751 | 17.78° C | 60% | 1019 hPa | 0 mm | - | 218 W/m² | - |
| 1777819449 | 17.78° C | 62% | 1018.9 hPa | 0 mm | - | 202 W/m² | - |
| 1777819147 | 17.78° C | 61% | 1019.1 hPa | 0 mm | - | 186 W/m² | - |
| 1777818843 | 17.22° C | 61% | 1018.7 hPa | 0 mm | - | 168 W/m² | - |
| 1777818539 | 17.22° C | 62% | 1018.8 hPa | 0 mm | - | 154 W/m² | - |
| 1777818237 | 17.22° C | 61% | 1018.7 hPa | 0 mm | - | 140 W/m² | - |
| 1777817933 | 17.22° C | 61% | 1018.9 hPa | 0 mm | - | 126 W/m² | - |
| 1777817630 | 17.78° C | 60% | 1018.7 hPa | 0 mm | - | 113 W/m² | - |
| 1777817327 | 17.78° C | 58% | 1018.5 hPa | 0 mm | - | 101 W/m² | - |
| 1777817024 | 17.78° C | 58% | 1018.4 hPa | 0 mm | - | 91 W/m² | - |
| 1777816720 | 17.78° C | 58% | 1018.7 hPa | 0 mm | - | 85 W/m² | - |
| 1777816418 | 17.22° C | 57% | 1018.5 hPa | 0 mm | - | 70 W/m² | - |
| 1777816115 | 17.22° C | 57% | 1018.6 hPa | 0 mm | - | 61 W/m² | - |
| 1777815813 | 17.22° C | 57% | 1018.5 hPa | 0 mm | - | 52 W/m² | - |
| 1777815510 | 17.22° C | 57% | 1018.4 hPa | 0 mm | - | 45 W/m² | - |
| 1777815207 | 17.22° C | 57% | 1018.5 hPa | 0 mm | - | 38 W/m² | - |
* Rain latest hour (hover to see other rain measurements)
** Current wind speed in m/s (hover to see current wind gust speed)